User: anonymous   Login
Location: Anciles
(42.5833°N, 0.5167°E)
Time: 11:44:19
(UTC+00:00)
Language:

Cosmos 1812 - Orbit

View from above orbital plane
View from above orbital plane
View from above satellite
View from above satellite

Ground track
Ground track

The orbit data is extracted from the following two-line orbital elements,

1 17295U 87003A   20088.87411536 +.00000337 +00000-0 +16146-4 0  9990
2 17295 082.5150 224.9202 0002964 185.1165 175.0038 15.15475831812517
Epoch (UTC): 28 March 2020 20:58:43
Eccentricity: 0.0002964
inclination: 82.5150°
perigee height: 517 km
apogee height: 521 km
right ascension of ascending node: 224.9202°
argument of perigee: 185.1165°
revolutions per day: 15.15475831
mean anomaly at epoch: 175.0038°
orbit number at epoch: 81251

The dashed part of the orbit path shows where the satellite is in the earth's shadow,  

DLR